EW4964 Weather Reports


Display with metric or nautical units.
time (UTC)temp
F
wind
direction
speed
MPH
gust
MPH
rain 1hr
in
rain 24hr
in
rain mn
in
humidity
%
barometer
mb
20260506210008 55 181 4.0 7.0 0.00 0.00 0.00 43 1009.0
20260506204507 55 175 2.0 4.0 0.00 0.00 0.00 42 1009.1
20260506203008 56 153 1.0 4.0 0.00 0.00 0.00 41 1009.2
20260506201507 56 258 2.0 4.0 0.00 0.00 0.00 41 1009.3
20260506200008 57 148 2.0 5.0 0.00 0.00 0.00 39 1009.2
20260506194507 57 165 3.0 5.0 0.00 0.00 0.00 39 1009.0
20260506193008 58 225 2.0 4.0 0.00 0.00 0.00 38 1009.2
20260506190008 59 248 3.0 7.0 0.00 0.00 0.00 37 1008.8
20260506181508 60 225 5.0 10.0 0.00 0.00 0.00 34 1008.7
20260506180007 61 214 6.0 13.0 0.00 0.00 0.00 33 1008.7
20260506174507 62 270 6.0 14.0 0.00 0.00 0.00 31 1008.6
20260506173007 63 220 7.0 16.0 0.00 0.00 0.00 31 1008.7
20260506171508 64 208 7.0 15.0 0.00 0.00 0.00 28 1008.7
20260506170007 66 229 8.0 15.0 0.00 0.00 0.00 27 1008.6
20260506164507 69 174 7.0 12.0 0.00 0.00 0.00 26 1008.6
20260506163007 68 191 6.0 11.0 0.00 0.00 0.00 27 1008.9
20260506161507 67 217 9.0 17.0 0.00 0.00 0.00 27 1009.0
20260506160006 67 191 9.0 14.0 0.00 0.00 0.00 27 1009.0
20260506154507 67 188 7.0 15.0 0.00 0.00 0.00 27 1009.4
20260506153007 66 207 8.0 14.0 0.00 0.00 0.00 28 1009.5
20260506151507 69 164 7.0 15.0 0.00 0.00 0.00 27 1009.4
20260506150007 69 215 7.0 11.0 0.00 0.00 0.00 29 1009.7
20260506144507 67 213 7.0 11.0 0.00 0.00 0.00 28 1010.0
20260506143007 66 193 7.0 14.0 0.00 0.00 0.00 28 1010.2
20260506141506 67 174 6.0 12.0 0.00 0.00 0.00 29 1010.2
20260506134506 65 256 7.0 19.0 0.00 0.00 0.00 28 1010.3
20260506133006 66 196 5.0 8.0 0.00 0.00 0.00 27 1010.6
20260506131507 66 237 6.0 11.0 0.00 0.00 0.00 27 1010.6
20260506130006 66 249 6.0 11.0 0.00 0.00 0.00 27 1010.9
20260506124507 64 228 5.0 11.0 0.00 0.00 0.00 28 1011.1
20260506123007 65 276 4.0 6.0 0.00 0.00 0.00 28 1011.2
20260506121507 66 286 4.0 10.0 0.00 0.00 0.00 28 1011.2
20260506120006 67 248 5.0 10.0 0.00 0.00 0.00 27 1011.4
20260506114506 67 256 4.0 9.0 0.00 0.00 0.00 27 1011.3
20260506113006 67 299 3.0 6.0 0.00 0.00 0.00 29 1011.4
20260506111506 67 296 4.0 10.0 0.00 0.00 0.00 27 1011.6
20260506104506 67 269 4.0 8.0 0.00 0.00 0.00 28 1011.9
20260506101506 65 276 5.0 9.0 0.00 0.00 0.00 31 1011.9
20260506100006 64 291 4.0 8.0 0.00 0.00 0.00 31 1012.0
20260506094506 64 272 4.0 11.0 0.00 0.00 0.00 31 1012.1
20260506091506 63 270 5.0 10.0 0.00 0.00 0.00 32 1011.9
20260506090006 61 277 4.0 9.0 0.00 0.00 0.00 35 1011.9
20260506084506 60 343 6.0 11.0 0.00 0.00 0.00 37 1012.1
20260506073006 56 292 5.0 11.0 0.00 0.00 0.00 41 1011.8
20260506071505 57 335 5.0 10.0 0.00 0.00 0.00 42 1011.6
20260506061505 54 328 4.0 14.0 0.00 0.00 0.00 46 1011.6
20260506044505 51 339 5.0 8.0 0.00 0.00 0.00 72 1011.1
20260506043005 50 342 3.0 6.0 0.00 0.00 0.00 72 1010.8
20260506040006 50 1 3.0 5.0 0.00 0.00 0.00 69 1010.7
20260506031505 51 1 2.0 7.0 0.00 0.00 0.00 64 1010.7
20260506030005 51 1 2.0 4.0 0.00 0.00 0.00 62 1010.6
20260506024505 51 1 1.0 3.0 0.00 0.00 0.00 61 1010.5
20260506023004 51 1 1.0 2.0 0.00 0.00 0.00 61 1010.4
20260506020005 52 1 2.0 4.0 0.00 0.00 0.00 61 1010.3
20260506014505 52 358 3.0 6.0 0.00 0.00 0.00 58 1010.1
20260506010005 52 1 2.0 5.0 0.00 0.00 0.00 54 1010.4
20260506004505 52 1 3.0 8.0 0.00 0.00 0.00 51 1010.1
20260506000004 52 327 2.0 4.0 0.00 0.00 0.00 44 1009.8
20260505234505 52 272 2.0 5.0 0.00 0.00 0.00 43 1010.3
20260505233004 53 316 2.0 4.0 0.00 0.00 0.00 41 1009.9
20260505230008 53 240 3.0 11.0 0.00 0.00 0.00 39 1009.8
20260505224507 53 245 4.0 8.0 0.00 0.00 0.00 38 1009.8
20260505220010 53 222 6.0 12.0 0.00 0.00 0.00 36 1009.4
20260505214507 54 247 7.0 11.0 0.00 0.00 0.00 36 1009.5
20260505213008 54 262 6.0 12.0 0.00 0.00 0.00 35 1009.5